Weather History for Avoca, PA

Change the Weather History Date:

Tuesday, January 1, 2013

  Actual Average Record
Temperature  
Mean Temperature 25 °F 27 °F  
Max Temperature 34 °F 34 °F 61 °F (1973)
Min Temperature 16 °F 20 °F -3 °F (1918)
Degree Days  
Heating Degree Days 40 38  
Month to date heating degree days 40 38  
Since 1 July heating degree days 2154 2416  
Cooling Degree Days 0 0  
Month to date cooling degree days 0 0  
Year to date cooling degree days 0 0  
Moisture  
Dew Point 21 °F    
Average Humidity 68    
Maximum Humidity 85    
Minimum Humidity 50    
Precipitation  
Precipitation 0.02 in 0.07 in 0.93 in (1961)
Month to date precipitation 0.02 0.07  
Year to date precipitation 0.02 0.07  
Sea Level Pressure  
Sea Level Pressure 29.91 in    
Wind  
Wind Speed 10 mph (WNW)    
Max Wind Speed 20 mph    
Max Gust Speed 25 mph    
Visibility 8 miles    
Events Snow    
T = Trace of Precipitation, MM = Missing Value Source: NWS Daily Summary

Daily Weather History Graph

Daily Weather History Graph

Search for Another Location

Airport:

Trip Planner

Search our weather history database for the weather conditions in past years. The results will help you decide how hot, cold, wet, or windy it might be!

Date:

Astronomy

Jan. 01, 2013 Rise Set
Actual Time 7:28 AM EST 4:44 PM EST
Civil Twilight 6:57 AM EST 5:15 PM EST
Nautical Twilight 6:23 AM EST 5:50 PM EST
Astronomical Twilight 5:49 AM EST 6:23 PM EST
Moon 9:16 PM EST (1/1) 9:37 AM EST (1/1)
Length of Visible Light 10h 17m
Length of Day
9h 15m
Waning Gibbous, 83% of the Moon is Illuminated
Jan 1
Waning Gibbous
Jan 4
Last Quarter
Jan 11
New
Jan 18
First Quarter
Jan 26
Full

Hourly Weather History & Observations

Time (EST) Temp. Windchill Dew Point Humidity Pressure Visibility Wind Dir Wind Speed Gust Speed Precip Events Conditions
12:54 AM 34.0 °F 25.5 °F 26.1 °F 73% 29.88 in 10.0 mi WSW 11.5 mph - N/A   Overcast
1:54 AM 34.0 °F 26.6 °F 27.0 °F 75% 29.87 in 10.0 mi SW 9.2 mph - N/A   Overcast
2:54 AM 34.0 °F 25.0 °F 26.1 °F 73% 29.88 in 10.0 mi SW 12.7 mph - N/A   Overcast
3:54 AM 34.0 °F 25.5 °F 26.1 °F 73% 29.89 in 10.0 mi SW 11.5 mph 19.6 mph N/A   Overcast
4:54 AM 34.0 °F 26.6 °F 25.0 °F 70% 29.87 in 10.0 mi WSW 9.2 mph - N/A   Overcast
5:41 AM 33.8 °F 26.4 °F 24.8 °F 70% 29.86 in 10.0 mi WSW 9.2 mph - N/A   Overcast
5:54 AM 34.0 °F 27.2 °F 25.0 °F 70% 29.89 in 10.0 mi WSW 8.1 mph - N/A   Overcast
6:01 AM 33.8 °F 25.8 °F 24.8 °F 70% 29.86 in 10.0 mi WSW 10.4 mph - N/A   Overcast
6:12 AM 33.8 °F 27.0 °F 24.8 °F 70% 29.87 in 10.0 mi SW 8.1 mph - N/A   Overcast
6:39 AM 33.8 °F 28.6 °F 24.8 °F 70% 29.86 in 10.0 mi SW 5.8 mph - N/A   Overcast
6:54 AM 34.0 °F 28.0 °F 25.0 °F 70% 29.88 in 10.0 mi SW 6.9 mph - N/A   Overcast
7:54 AM 33.1 °F 26.9 °F 26.1 °F 75% 29.89 in 10.0 mi SW 6.9 mph - N/A   Overcast
8:27 AM 33.8 °F 27.0 °F 26.6 °F 75% 29.86 in 9.0 mi SW 8.1 mph - N/A   Overcast
8:54 AM 33.1 °F 26.1 °F 26.1 °F 75% 29.90 in 5.0 mi WSW 8.1 mph - 0.00 in Snow Light Snow
9:07 AM 33.8 °F 27.0 °F 26.6 °F 75% 29.88 in 2.0 mi WNW 8.1 mph - 0.01 in Snow Light Snow
9:29 AM 32.0 °F 25.6 °F 26.6 °F 80% 29.89 in 3.0 mi NNW 6.9 mph - 0.01 in Snow Light Snow
9:47 AM 30.2 °F 23.4 °F 26.6 °F 86% 29.90 in 2.5 mi NNW 6.9 mph - 0.02 in Snow Light Snow
9:54 AM 30.9 °F 24.3 °F 26.1 °F 82% 29.92 in 3.0 mi NNW 6.9 mph - 0.02 in Snow Light Snow
10:07 AM 30.2 °F 24.3 °F 26.6 °F 86% 29.90 in 2.5 mi NNW 5.8 mph - 0.00 in Snow Light Snow
10:19 AM 30.2 °F 26.7 °F 24.8 °F 80% 29.91 in 4.0 mi NNW 3.5 mph - 0.00 in   Haze
10:54 AM 30.9 °F 25.2 °F 25.0 °F 79% 29.93 in 4.0 mi NW 5.8 mph - 0.00 in Snow Light Snow
11:54 AM 32.0 °F 23.0 °F 23.0 °F 69% 29.90 in 7.0 mi NW 11.5 mph 17.3 mph N/A   Overcast
12:54 PM 32.0 °F 22.5 °F 23.0 °F 69% 29.89 in 7.0 mi NNW 12.7 mph - N/A   Overcast
1:54 PM 30.0 °F 18.7 °F 19.9 °F 66% 29.87 in 10.0 mi NNW 16.1 mph - 0.00 in   Overcast
2:54 PM 30.0 °F 19.5 °F 19.0 °F 64% 29.90 in 10.0 mi NNW 13.8 mph 20.7 mph 0.00 in   Overcast
3:54 PM 28.0 °F 18.1 °F 15.1 °F 58% 29.92 in 10.0 mi NW 11.5 mph - 0.00 in   Mostly Cloudy
4:54 PM 28.0 °F 17.5 °F 12.9 °F 53% 29.94 in 10.0 mi NW 12.7 mph - N/A   Clear
5:54 PM 27.0 °F 16.1 °F 12.0 °F 53% 29.96 in 10.0 mi NNW 12.7 mph - N/A   Mostly Cloudy
6:54 PM 24.1 °F 13.1 °F 14.0 °F 65% 29.99 in 10.0 mi NNW 11.5 mph - N/A   Clear
7:54 PM 21.9 °F 10.4 °F 12.9 °F 68% 29.99 in 10.0 mi North 11.5 mph - N/A   Scattered Clouds
8:54 PM 19.9 °F 12.1 °F 10.9 °F 68% 30.00 in 10.0 mi North 5.8 mph - N/A   Partly Cloudy
9:54 PM 19.9 °F 11.1 °F 10.9 °F 68% 30.01 in 10.0 mi NNW 6.9 mph - N/A   Clear
10:54 PM 18.0 °F 9.8 °F 10.9 °F 74% 30.03 in 10.0 mi North 5.8 mph - N/A   Scattered Clouds
11:54 PM 17.1 °F - 10.0 °F 74% 30.02 in 10.0 mi Calm Calm - N/A   Scattered Clouds